Current weather by "City, St" or "zip code"  
 

Current Conditions: Chariton, IA

Fair


39.0 F

Last Updated on Oct 31 2020, 4:55 am CDT
Humidity: 93%
Wind Speed: S 11.5 mph
Barometer 30.07 in
Dewpoint: 37.4 F
Visibility: 10.00 mi
Precip: --
Heat Index: NA
Wind Chill: 32 F
Current conditions at:

Chariton, IA (KCNC)

Lat: 41.03333 Lon: 93.36667

Local Radar Image active severe weather and emergency alerts image image weather storm and storm spotter reports image weather observation monitoring service image
Local
Radar
Active
Alerts
Storm Reports Obs
Monitoring

Sign-up For Email & Text Message Weather Alert Notification Services



Advertise Here

Observation History for Chariton, IA


Time Wind
(mph)
Vis
(mi)
Weather Precip (in) Temperature (F) Relative
Humidity
Wind
Chill
(F)
Heat
Index
(F)
Pressure
Air Dwpt altimeter
(in)
sea level
(mb)
Rmks
4:55 am CDT S 11.5 10.00 Fair -- 39.0 37.4 93% 32 NA 30.07 M
3:55 am CDT SE 13.8 10.00 Fair -- 39.0 35.6 87% 31 NA 30.08 M
2:55 am CDT SE 12.7 10.00 Fair -- 39.0 33.8 81% 31 NA 30.11 M
1:55 am CDT SE 11.5 10.00 Fair -- 39.0 33.8 81% 32 NA 30.13 M
12:55 am CDT SE 11.5 G 18.4 10.00 Fair -- 39.0 32.0 75% 32 NA 30.14 M
11:55 pm CDT SE 11.5 10.00 Fair -- 41.0 32.0 70% 34 NA 30.16 M
10:55 pm CDT SE 10.4 10.00 Fair -- 39.0 33.8 81% 32 NA 30.18 M
9:55 pm CDT SE 6.9 10.00 Fair -- 37.0 33.8 87% 32 NA 30.18 M
8:55 pm CDT SE 6.9 10.00 Fair -- 41.0 33.8 76% 36 NA 30.19 M
7:55 pm CDT SE 6.9 10.00 Fair -- 41.0 33.8 76% 36 NA 30.20 M
6:55 pm CDT E 6.9 10.00 Fair -- 43.0 32.0 66% 39 NA 30.19 M
5:55 pm CDT SE 5.8 10.00 Fair -- 48.0 33.8 58% 45 NA 30.19 M
4:55 pm CDT SE 10.4 10.00 Fair -- 52.0 33.8 50% 48 NA 30.19 M
3:55 pm CDT SE 8.1 10.00 Fair -- 52.0 32.0 47% 49 NA 30.20 M
2:55 pm CDT E 9.2 10.00 Fair -- 50.0 32.0 50% 46 NA 30.21 M
1:55 pm CDT 10.00 Fair -- 50.0 32.0 50% NA NA 30.23 M
12:55 pm CDT SE 9.2 10.00 Fair -- 46.0 32.0 57% 41 NA 30.26 M
11:55 am CDT SE 6.9 10.00 Fair -- 45.0 33.8 66% 41 NA 30.28 M
10:55 am CDT SE 6.9 10.00 Fair -- 41.0 35.6 81% 36 NA 30.28 M
9:55 am CDT SE 8.1 10.00 Fair -- 37.0 33.8 87% 31 NA 30.28 M
8:55 am CDT N 0.0 8.00 Fair -- 30.0 30.2 100% NA NA 30.26 M
7:55 am CDT S 5.8 8.00 Fair -- 27.0 26.6 100% 20 NA 30.23 M
6:55 am CDT S 3.5 10.00 A Few Clouds -- 27.0 26.6 100% NA NA 30.22 M
5:55 am CDT N 0.0 8.00 Fair -- 27.0 26.6 100% NA NA 30.21 M

Regional Weather Observation


Chariton, IA (KCNC)

Fair
39.0 F

Knoxville, IA (KOXV)

Fair
39.0 F

Des Moines International Airport, IA (KDSM)

Fair
38.0 F

Ankeny Regional Airport, IA (KIKV)

Fair
36.0 F

Newton Municipal Airport - Earl Johnson Field, IA (KTNU)

Fair
36.0 F

Ames, Ames Municipal Airport, IA (KAMW)

Fair
36.0 F